Location: Berville
(49.1893°N, 2.0748°E)
Time: 18:31:48
(UTC+00:00)

Cosmos 836 Rocket - Visible Passes

Search period start: 01 October 2023 00:00
Search period end: 11 October 2023 00:00
Orbit: 755 x 777 km, 74.1° (Epoch: 30 September)

Date Brightness Start Highest point End Pass type
(mag) Time Alt. Az. Time Alt. Az. Time Alt. Az.
01 Oct 7.0 21:27:15 10° N 21:28:25 13° NNE 21:28:25 13° NNE visible
01 Oct 7.4 23:08:09 10° NNW 23:08:38 13° NNW 23:08:38 13° NNW visible
02 Oct 7.0 20:50:47 10° NNE 20:51:22 11° NNE 20:51:22 11° NNE visible
02 Oct 7.2 22:30:42 10° NNW 22:31:35 15° N 22:31:35 15° N visible
03 Oct 7.0 21:53:21 10° N 21:54:32 16° N 21:54:32 16° N visible
04 Oct 6.9 21:16:08 10° N 21:17:31 15° N 21:17:31 15° N visible
04 Oct 7.5 22:57:31 10° NNW 22:57:44 11° NNW 22:57:44 11° NNW visible
05 Oct 6.9 20:39:08 10° N 20:40:30 13° NNE 20:40:30 13° NNE visible
05 Oct 7.2 22:19:57 10° NNW 22:20:43 14° NNW 22:20:43 14° NNW visible
06 Oct 6.9 20:02:52 10° NNE 20:03:30 11° NNE 20:03:30 11° NNE visible
06 Oct 7.0 21:42:30 10° NNW 21:43:43 17° N 21:43:43 17° N visible
07 Oct 6.8 21:05:10 10° N 21:06:44 18° N 21:06:44 18° N visible
08 Oct 6.7 20:27:58 10° N 20:29:46 16° NNE 20:29:46 16° NNE visible
08 Oct 7.3 22:09:18 10° NNW 22:09:58 14° NNW 22:09:58 14° NNW visible
09 Oct 6.7 19:51:00 10° N 19:52:48 14° NNE 19:52:48 14° NNE visible
09 Oct 6.9 21:31:44 10° NNW 21:33:01 18° NNW 21:33:01 18° NNW visible
10 Oct 6.8 19:15:09 10° NNE 19:15:45 10° NE 19:15:52 10° NE visible
10 Oct 6.6 20:54:17 10° NNW 20:56:05 20° N 20:56:05 20° N visible
